Home > Weather > Papenburg > Past weeks

Flag for Germany Weather for the Past 2 Weeks in Papenburg, Lower Saxony, Germany

Now
48 °F

Cool.


Feels Like: 45 °F
Forecast: 43 / 49 °F
Wind: 8 mph from Southeast

Location: Meppen-Mil

Current Time: Feb 7, 2016 at 4:52:33 AM

Latest Report: Feb 7, 2016 at 3:20 AM


Visibility: N/A

Pressure: 29.45 "Hg

Humidity: 66%

Dew point: 37 °F

Location of PapenburgLocation

Historic Weather in Papenburg — Graph

°F

Papenburg Temperature Yesterday

Maximum temperature yesterday: 50 °F (at 2:20 AM)
Minimum temperature yesterday: 48 °F (at 12:20 AM)
Average temperature yesterday: 49 °F

High & Low Weather Summary for the Past Weeks

 TemperatureHumidityPressure
High57 °F (Jan 25, 3:20 PM)100% (Jan 23, 6:20 AM)30.48 "Hg (Jan 23, 6:20 AM)
Low37 °F (Jan 23, 3:20 AM)54% (Feb 2, 12:20 PM)29.45 "Hg (Feb 7, 3:20 AM)
Average46 °F81%30.00 "Hg
* Reported Jan 23 3:20 AM — Feb 7 3:20 AM, Papenburg, Weather by CustomWeather, © 2016

Note: Actual official high and low records may vary slightly from our data, if they occured in-between our weather recording intervals... More about our weather records

Advertising

Papenburg Weather History for the Previous 24 Hours

 ConditionsComfort  
Time TempWeatherWind HumidityBarometerVisibility
3:20 AM
Sun, Feb 7
48 °FCool.8 mph66%29.45 "HgN/A
2:20 AM48 °FCool.8 mph71%29.47 "HgN/A
1:20 AM48 °FCool.8 mph66%29.47 "HgN/A
12:20 AM48 °FCool.8 mph66%29.50 "HgN/A
11:20 PM
Sat, Feb 6
48 °FCool.8 mph66%29.53 "HgN/A
10:20 PM48 °FCool.9 mph66%29.56 "HgN/A
9:20 PM48 °FCool.6 mph71%29.59 "HgN/A
8:20 PM48 °FCool.5 mph71%29.59 "HgN/A
7:20 PM48 °FCool.6 mph71%29.62 "HgN/A
6:20 PM48 °FCool.6 mph71%29.65 "HgN/A
5:20 PM50 °FCool.9 mph62%29.68 "HgN/A
4:20 PM50 °FCool.10 mph67%29.68 "HgN/A
3:20 PM50 °FCool.10 mph67%29.71 "HgN/A
2:20 PM50 °FCool.9 mph71%29.74 "HgN/A
1:20 PM50 °FCool.10 mph71%29.77 "HgN/A
12:20 PM50 °FCool.9 mph71%29.80 "HgN/A
11:20 AM50 °FCool.10 mph71%29.80 "HgN/A
10:20 AM48 °FCool.8 mph76%29.83 "HgN/A
9:20 AM48 °FCool.7 mph76%29.83 "HgN/A
8:20 AM48 °FCool.8 mph76%29.83 "HgN/A
7:20 AM48 °FCool.7 mph82%29.86 "HgN/A
6:20 AM48 °FCool.7 mph82%29.86 "HgN/A
5:20 AM50 °FCool.6 mph76%29.89 "HgN/A
4:20 AM50 °FCool.7 mph76%29.92 "HgN/A
Weather by CustomWeather, © 2016

See weather overviewHow to use our weather pages